Weather History for Hartford, CT

Change the Weather History Date:

Thursday, May 23, 2013

  Actual Average Record
Temperature  
Mean Temperature 68 °F -  
Max Temperature 73 °F 75 °F 94 °F (1992)
Min Temperature 64 °F 50 °F 39 °F (1963)
Cooling Degree Days 4    
Growing Degree Days 18 (Base 50)    
Moisture  
Dew Point 65 °F    
Average Humidity 90    
Maximum Humidity 97    
Minimum Humidity 78    
Precipitation  
Precipitation 0.46 in - - ()
Sea Level Pressure  
Sea Level Pressure 29.86 in    
Wind  
Wind Speed 8 mph (South)    
Max Wind Speed 13 mph    
Max Gust Speed 18 mph    
Visibility 8 miles    
Events Rain    
Averages and records for this station are not official NWS values.
T = Trace of Precipitation, MM = Missing Value Source: NWS Daily Summary

Daily Weather History Graph

Daily Weather History Graph

Search for Another Location

Airport:

Trip Planner

Search our weather history database for the weather conditions in past years. The results will help you decide how hot, cold, wet, or windy it might be!

Date:

Astronomy

May. 23, 2013 Rise Set
Actual Time 5:23 AM EDT 8:11 PM EDT
Civil Twilight 4:51 AM EDT 8:44 PM EDT
Nautical Twilight 4:10 AM EDT 9:25 PM EDT
Astronomical Twilight 3:22 AM EDT 10:12 PM EDT
Moon 6:39 PM EDT (5/23) 4:08 AM EDT (5/23)
Length of Visible Light 15h 53m
Length of Day
14h 47m
Waxing Gibbous, 97% of the Moon is Illuminated
May 23
Waxing Gibbous
May 25
Full
May 31
Last Quarter
Jun 8
New
Jun 16
First Quarter

Hourly Weather History & Observations

Time (EDT) Temp. Dew Point Humidity Pressure Visibility Wind Dir Wind Speed Gust Speed Precip Events Conditions
12:53 AM 68.0 °F 64.0 °F 87% 29.88 in 7.0 mi South 8.1 mph - N/A   Overcast
1:53 AM 66.9 °F 64.0 °F 90% 29.88 in 8.0 mi South 6.9 mph - N/A   Overcast
2:13 AM 66.2 °F 64.4 °F 94% 29.87 in 8.0 mi South 6.9 mph - N/A   Overcast
2:53 AM 66.0 °F 64.0 °F 93% 29.86 in 8.0 mi South 5.8 mph - N/A   Mostly Cloudy
3:53 AM 66.9 °F 64.0 °F 90% 29.85 in 9.0 mi South 8.1 mph - N/A   Overcast
4:07 AM 66.2 °F 64.4 °F 94% 29.86 in 9.0 mi SSW 8.1 mph - N/A   Overcast
4:53 AM 66.0 °F 64.0 °F 93% 29.86 in 9.0 mi South 5.8 mph - N/A   Overcast
5:53 AM 66.9 °F 64.0 °F 90% 29.87 in 9.0 mi South 6.9 mph - N/A   Overcast
6:53 AM 66.9 °F 64.0 °F 90% 29.88 in 8.0 mi South 8.1 mph - N/A   Overcast
7:53 AM 68.0 °F 64.9 °F 90% 29.89 in 8.0 mi Variable 6.9 mph - 0.01 in   Overcast
8:53 AM 68.0 °F 66.0 °F 93% 29.89 in 7.0 mi South 5.8 mph - N/A   Overcast
9:53 AM 70.0 °F 66.0 °F 87% 29.89 in 9.0 mi South 9.2 mph - N/A   Overcast
10:04 AM 69.8 °F 66.2 °F 88% 29.89 in 10.0 mi South 9.2 mph - N/A   Overcast
10:53 AM 68.0 °F 64.9 °F 90% 29.91 in 9.0 mi South 10.4 mph - N/A   Overcast
11:08 AM 68.0 °F 66.2 °F 94% 29.90 in 2.0 mi SSE 6.9 mph - 0.06 in Rain Heavy Rain
11:17 AM 68.0 °F 66.2 °F 94% 29.90 in 7.0 mi SSE 6.9 mph - 0.06 in Rain Light Rain
11:22 AM 68.0 °F 66.2 °F 94% 29.90 in 9.0 mi South 5.8 mph - 0.06 in   Overcast
11:53 AM 69.1 °F 66.9 °F 93% 29.89 in 10.0 mi SSE 8.1 mph - 0.06 in   Overcast
12:53 PM 72.0 °F 68.0 °F 87% 29.88 in 7.0 mi South 12.7 mph 18.4 mph N/A   Overcast
1:22 PM 71.6 °F 68.0 °F 88% 29.87 in 9.0 mi South 8.1 mph - N/A   Overcast
1:41 PM 73.4 °F 66.2 °F 78% 29.87 in 10.0 mi South 6.9 mph - N/A   Overcast
1:53 PM 73.0 °F 68.0 °F 84% 29.86 in 10.0 mi South 11.5 mph - N/A   Overcast
2:53 PM 73.0 °F 66.9 °F 81% 29.85 in 10.0 mi SSE 8.1 mph - N/A   Overcast
3:28 PM 73.4 °F 66.2 °F 78% 29.84 in 10.0 mi South 11.5 mph - N/A   Overcast
3:41 PM 73.4 °F 66.2 °F 78% 29.84 in 10.0 mi SSW 8.1 mph - N/A   Overcast
3:53 PM 73.0 °F 66.9 °F 81% 29.84 in 10.0 mi South 8.1 mph - N/A   Overcast
4:41 PM 69.8 °F 66.2 °F 88% 29.84 in 1.5 mi WSW 6.9 mph - 0.11 in Rain Rain
4:53 PM 69.1 °F 64.9 °F 87% 29.85 in 7.0 mi SSW 6.9 mph - 0.13 in Rain Light Rain
5:53 PM 69.1 °F 66.9 °F 93% 29.85 in 10.0 mi South 9.2 mph - 0.02 in Rain Light Rain
6:53 PM 69.1 °F 64.9 °F 87% 29.85 in 10.0 mi South 6.9 mph - 0.02 in   Overcast
7:39 PM 69.8 °F 64.4 °F 83% 29.83 in 10.0 mi South 6.9 mph - N/A   Overcast
7:53 PM 68.0 °F 64.9 °F 90% 29.83 in 10.0 mi South 9.2 mph - N/A   Overcast
8:48 PM 66.2 °F 64.4 °F 94% 29.84 in 6.0 mi South 9.2 mph - 0.03 in Rain Light Rain
8:53 PM 66.9 °F 64.9 °F 93% 29.83 in 8.0 mi South 8.1 mph - 0.03 in Rain Light Rain
9:34 PM 66.2 °F 64.4 °F 94% 29.83 in 2.5 mi South 8.1 mph - 0.06 in Rain Heavy Rain
9:42 PM 66.2 °F 64.4 °F 94% 29.83 in 3.0 mi South 8.1 mph - 0.07 in Rain Light Rain
9:53 PM 66.0 °F 64.9 °F 96% 29.82 in 6.0 mi South 9.2 mph - 0.08 in Rain Light Rain
10:27 PM 66.2 °F 64.4 °F 94% 29.81 in 4.0 mi South 8.1 mph - 0.06 in Rain Rain
10:35 PM 66.2 °F 64.4 °F 94% 29.81 in 7.0 mi South 8.1 mph - 0.06 in Rain Light Rain
10:53 PM 64.9 °F 64.0 °F 97% 29.81 in 9.0 mi South 9.2 mph - 0.07 in Rain Light Rain
11:53 PM 64.9 °F 64.0 °F 97% 29.78 in 5.0 mi South 5.8 mph - 0.04 in Rain Rain